Location: Alafon
(8.4500°N, 4.2333°E)
Time: 22:02:25
(UTC+00:00)

Explorer 7 - Pass Details

Date: 28 July 2021
Orbit: 484 x 676 km, 50.3° (Epoch: 18 September)

Event Time Altitude Azimuth Distance (km) Brightness Sun altitude
Rises 03:09:29 0° 205° (SSW) 2,555 - -33.6°
Reaches altitude 10° 03:11:45 10° 198° (SSW) 1,661 - -33.2°
Maximum altitude 03:15:17 40° 127° (SE) 715 - -32.4°
Exits shadow 03:17:46 17° 63° (ENE) 1,277 9.4 -31.9°
Drops below altitude 10° 03:18:48 10° 56° (NE) 1,656 10.1 -31.6°
Sets 03:21:03 0° 48° (NE) 2,545 11.3 -31.1°
